Vorticity
11 11 10 9 7 6 5 4 4 4 5 6 7 9 12 13 12 10 8 6 5 5 5 4 3 4 3 3 3 2 2 1 1 4 5 5 4 3 6 9 10 7 1
7 4 4 4 3 2 2 2 3 4 4 4 4 5 5 5 4 4 7 10 11 10 8 6 6 5 4 4 3 5 4 2 3 5 5 4 5 5 3 3 6 10 10
3 2 3 3 2 3 3 3 3 3 3 3 3 4 4 4 5 4 4 3 3 5 8 9 9 10 8 10 7 6 5 6 7 5 4 4 5 3 5 3 3 3 6
5 2 1 2 3 4 4 6 8 8 7 6 7 8 7 8 6 5 5 5 4 3 2 3 3 3 6 7 8 8 7 7 7 8 8 10 6 9 4 5 4 2 3
5 4 4 6 8 7 5 3 6 9 10 11 11 10 10 8 6 6 8 8 8 7 6 5 4 2 2 2 2 3 4 5 5 6 7 7 3 6 12 -1 8 6 2
7 8 6 3 4 9 12 10 9 13 15 14 13 14 12 11 9 8 9 8 7 6 6 6 6 6 5 4 3 5 1 2 2 4 3 5 6 5 1 3 12 8 3
4 3 7 13 10 10 13 19 18 18 19 20 17 12 14 15 23 33 29 21 12 11 9 8 8 5 5 7 7 6 5 4 4 2 1 1 2 4 5 0 13 7 9
10 15 8 10 16 21 14 15 19 23 24 25 22 23 25 20 12 9 7 9 17 29 36 15 11 8 5 6 8 8 7 6 7 8 5 3 1 1 3 2 5 -3 -7
8 7 15 24 13 17 16 14 14 13 13 10 11 6 15 23 26 28 22 10 8 5 10 20 29 27 15 12 9 9 9 8 7 5 6 8 7 4 6 -0 2 -6 4
14 25 12 11 15 13 13 11 12 19 20 16 18 21 7 8 15 17 25 25 19 11 7 7 9 13 15 16 17 14 12 17 25 27 17 13 10 9 -11 4 -6 33 -1
13 5 12 13 11 3 1 8 13 8 8 9 11 13 19 19 15 8 5 14 12 11 14 19 18 16 16 16 17 17 10 8 5 8 16 20 14 5 11 9 2 7 14
10 17 4 7 5 -2 3 6 2 5 4 3 6 6 12 18 21 17 16 15 14 17 16 10 7 15 21 20 15 11 10 10 10 10 11 11 11 16 17 9 9 10 19
15 1 4 2 4 12 8 9 4 6 -1 14 11 8 5 8 1 4 9 20 20 10 4 11 18 20 19 17 16 14 10 8 9 11 14 17 15 12 9 10 16 9 8
6 3 2 3 6 8 12 11 9 12 6 -1 2 -1 2 4 -0 1 4 10 1 20 22 18 14 10 10 13 15 17 20 16 10 9 11 8 2 2 8 18 11 7 22
13 9 6 2 4 5 11 8 5 -1 -0 3 4 1 4 5 9 5 9 7 1 4 -2 11 21 16 8 4 6 8 4 5 8 11 12 13 17 16 8 6 8 13 7
9 18 23 14 10 5 5 6 3 -0 1 2 2 3 3 3 6 8 31 20 10 7 5 7 4 -1 9 12 14 12 8 4 9 12 22 15 24 35 21 12 8 8 9
6 4 11 12 10 6 4 5 6 1 5 3 4 4 10 7 6 8 22 18 10 8 7 6 8 5 -1 -1 10 19 11 8 12 11 13 23 13 44 50 33 24 23 11
9 13 11 10 12 13 10 7 6 5 2 5 5 5 5 10 11 5 8 13 18 12 16 16 9 6 8 11 3 13 11 13 10 15 16 10 8 46 63 47 3 25 9
5 6 8 10 10 9 11 11 12 7 6 6 6 7 12 15 13 4 12 2 1 5 7 1 18 12 8 6 7 3 15 9 12 31 8 9 14 35 30 49 21 17 35
4 5 5 6 6 7 7 8 10 11 11 6 5 6 8 9 18 6 3 0 2 0 2 1 1 9 10 5 7 5 9 16 12 27 15 8 31 28 63 81 21 29 0
2 2 3 3 2 3 3 5 7 4 -6 3 14 10 4 20 2 16 9 5 5 4 3 1 2 4 4 8 8 4 1 13 8 28 7 14 43 26 41 15 16 24 22
8 9 6 5 8 9 9 7 5 -0 9 24 -13 1 -2 3 14 10 12 7 5 4 2 1 4 2 3 3 5 8 5 4 17 10 19 15 21 6 39 -2 23 29 10
14 15 16 14 12 9 9 3 6 16 15 7 15 -6 8 5 9 4 15 12 4 7 2 2 4 2 3 3 2 6 6 5 11 15 21 7 24 37 -39 8 6 24 22
10 8 6 5 5 6 9 7 8 5 6 11 12 13 28 6 -4 19 -9 6 12 8 6 11 11 7 4 4 4 3 8 7 -2 19 14 14 41 12 -3 6 5 -2 20
13 13 12 11 11 9 11 11 10 10 9 7 6 5 4 9 12 26 0 16 -6 -6 4 2 -6 5 4 7 7 4 2 10 6 1 25 25 5 45 -9 -22 -5 -7 13
6 4 7 4 4 5 6 13 12 9 10 10 9 10 10 14 16 6 17 8 4 24 10 -14 15 5 -7 -5 12 8 1 4 13 3 1 25 17 23 30 24 4 4 10
Height
5820 5819 5819 5818 5818 5817 5817 5816 5815 5815 5814 5813 5812 5811 5811 5811 5810 5810 5810 5810 5810 5810 5810 5810 5811 5811 5811 5811 5811 5811 5811 5812 5812 5813 5813 5813 5813 5813 5813 5814 5814 5814 5814
5812 5812 5811 5810 5809 5809 5808 5808 5807 5806 5805 5804 5802 5801 5800 5800 5800 5800 5799 5799 5799 5799 5799 5799 5799 5801 5801 5801 5802 5802 5802 5803 5803 5804 5805 5805 5806 5806 5807 5807 5807 5808 5807
5804 5804 5803 5802 5801 5800 5799 5797 5796 5795 5793 5792 5793 5792 5789 5787 5787 5787 5788 5788 5788 5788 5789 5789 5788 5788 5790 5791 5791 5792 5792 5793 5794 5795 5796 5797 5797 5798 5799 5800 5800 5801 5801
5795 5794 5793 5792 5791 5789 5788 5786 5784 5782 5781 5779 5778 5777 5777 5776 5774 5773 5773 5774 5775 5776 5777 5777 5778 5777 5777 5778 5780 5781 5781 5782 5783 5784 5786 5787 5788 5789 5791 5792 5793 5793 5794
5785 5784 5783 5781 5779 5777 5775 5773 5771 5769 5767 5765 5764 5763 5761 5760 5760 5760 5760 5759 5760 5760 5762 5763 5764 5765 5765 5765 5766 5769 5770 5771 5772 5773 5775 5776 5778 5779 5781 5783 5784 5785 5786
5774 5773 5772 5770 5768 5765 5762 5759 5757 5754 5752 5750 5748 5747 5746 5744 5742 5742 5744 5744 5744 5744 5745 5747 5748 5750 5751 5752 5752 5755 5757 5759 5761 5762 5764 5766 5767 5769 5770 5772 5773 5775 5777
5763 5762 5761 5759 5756 5753 5750 5747 5744 5741 5738 5736 5735 5733 5731 5729 5727 5726 5725 5727 5728 5729 5728 5729 5732 5735 5737 5738 5740 5741 5743 5745 5747 5749 5752 5753 5756 5758 5759 5761 5763 5764 5767
5753 5752 5750 5747 5746 5742 5740 5737 5734 5732 5729 5725 5724 5723 5722 5718 5715 5714 5713 5713 5713 5713 5714 5715 5716 5718 5721 5723 5725 5726 5727 5729 5730 5734 5736 5739 5742 5744 5747 5749 5751 5753 5754
5742 5742 5741 5739 5737 5735 5732 5729 5726 5724 5721 5717 5715 5714 5711 5708 5705 5701 5701 5701 5701 5701 5701 5700 5701 5703 5704 5707 5709 5711 5712 5713 5714 5717 5720 5723 5727 5730 5733 5735 5738 5739 5742
5733 5733 5732 5731 5730 5728 5726 5723 5720 5717 5714 5711 5708 5705 5703 5700 5697 5695 5691 5690 5690 5689 5689 5689 5690 5691 5692 5692 5693 5695 5696 5698 5699 5702 5703 5707 5711 5714 5717 5719 5722 5720 5730
5725 5725 5725 5725 5723 5722 5720 5717 5715 5712 5709 5706 5703 5699 5696 5693 5690 5689 5686 5683 5681 5680 5680 5680 5679 5679 5679 5680 5681 5681 5682 5683 5684 5685 5686 5689 5693 5696 5699 5703 5705 5711 5717
5718 5719 5718 5718 5717 5716 5714 5712 5710 5707 5704 5701 5698 5695 5691 5688 5684 5682 5680 5678 5676 5672 5671 5670 5670 5669 5668 5668 5668 5668 5668 5669 5670 5671 5672 5673 5676 5678 5681 5685 5689 5695 5696
5711 5712 5712 5712 5711 5709 5707 5705 5703 5701 5699 5695 5692 5689 5686 5683 5681 5677 5674 5671 5670 5667 5663 5660 5658 5657 5657 5657 5657 5657 5657 5656 5656 5656 5656 5657 5658 5659 5662 5665 5670 5679 5684
5706 5706 5706 5705 5704 5702 5700 5698 5696 5694 5692 5689 5686 5683 5680 5677 5674 5671 5668 5665 5663 5660 5656 5654 5651 5650 5648 5646 5645 5645 5645 5644 5643 5641 5640 5640 5640 5640 5641 5644 5650 5658 5664
5699 5698 5697 5697 5696 5696 5694 5692 5690 5688 5685 5683 5680 5677 5673 5670 5666 5663 5658 5656 5654 5653 5649 5646 5644 5642 5639 5637 5634 5633 5631 5630 5628 5626 5622 5618 5616 5615 5616 5620 5627 5636 5644
5691 5689 5688 5687 5687 5686 5685 5683 5682 5680 5678 5675 5672 5669 5665 5662 5658 5654 5648 5645 5643 5642 5643 5638 5634 5632 5629 5627 5624 5621 5618 5616 5612 5606 5600 5595 5591 5586 5585 5590 5598 5609 5619
5684 5682 5680 5677 5676 5676 5675 5674 5672 5670 5668 5665 5662 5660 5656 5653 5649 5644 5640 5637 5635 5633 5632 5628 5625 5622 5619 5617 5613 5608 5604 5600 5594 5586 5577 5568 5561 5553 5550 5555 5567 5579 5593
5678 5675 5673 5670 5669 5667 5666 5665 5662 5660 5658 5655 5652 5649 5646 5643 5639 5636 5633 5630 5627 5624 5622 5620 5614 5612 5608 5604 5601 5596 5590 5584 5577 5566 5556 5547 5536 5523 5519 5526 5544 5555 5568
5670 5668 5665 5663 5660 5658 5656 5653 5651 5649 5646 5644 5642 5639 5636 5633 5630 5627 5624 5620 5618 5616 5613 5611 5607 5601 5597 5593 5590 5584 5577 5570 5561 5551 5540 5529 5518 5506 5503 5507 5522 5538 5550
5661 5659 5657 5654 5651 5649 5646 5644 5642 5639 5636 5633 5630 5628 5625 5622 5620 5617 5614 5611 5607 5605 5602 5599 5597 5593 5588 5583 5578 5574 5567 5557 5548 5538 5527 5517 5505 5498 5496 5497 5512 5524 5537
5652 5649 5646 5644 5641 5639 5636 5633 5630 5627 5625 5622 5619 5616 5613 5610 5608 5605 5602 5600 5597 5594 5591 5588 5585 5582 5577 5573 5568 5563 5557 5548 5537 5528 5520 5509 5499 5494 5492 5505 5512 5520 5527
5640 5637 5635 5632 5629 5627 5624 5621 5618 5614 5611 5608 5605 5603 5601 5598 5595 5593 5591 5589 5585 5582 5580 5576 5574 5570 5566 5562 5557 5553 5547 5540 5531 5520 5513 5506 5499 5498 5499 5505 5509 5516 5522
5628 5625 5622 5619 5616 5613 5610 5607 5603 5599 5596 5593 5590 5589 5586 5583 5582 5580 5577 5575 5572 5570 5567 5564 5562 5558 5555 5551 5548 5543 5538 5533 5525 5516 5510 5504 5500 5498 5499 5501 5505 5508 5514
5615 5612 5608 5605 5602 5599 5595 5592 5588 5585 5582 5578 5575 5572 5570 5568 5566 5565 5564 5561 5558 5555 5553 5550 5548 5546 5544 5540 5537 5533 5529 5525 5519 5512 5506 5502 5497 5497 5499 5501 5503 5506 5510
5601 5598 5594 5590 5587 5583 5581 5577 5573 5570 5566 5562 5558 5555 5552 5549 5547 5545 5545 5543 5541 5539 5537 5535 5533 5532 5530 5529 5525 5523 5520 5516 5513 5507 5503 5498 5496 5495 5496 5496 5497 5501 5505
5588 5584 5580 5576 5572 5568 5565 5561 5556 5552 5548 5544 5539 5536 5532 5530 5527 5524 5523 5522 5521 5518 5518 5517 5515 5515 5515 5514 5513 5511 5509 5506 5504 5502 5497 5493 5489 5489 5490 5491 5491 5492 5495